When you browse on this site, cookies collect data to enhance your experience and personalize the content and advertising you see.
Visit our Privacy Policy to learn more. By continuing to use the site, you agree to this use of cookies and data.
  • In Schweiz
  • Länderverzeichnis
  • Für 7 Tage
  • Wassertemperatur
  • Satellitenkarten
  • Wetterkarte
  • Widgets
  • user-avatar
    Anmelden

    Stündliche Wetter Andora

    Heute, 24 Juni, Montag

    Zeit Temperatur Niederschläge Wind Luftdruck Luftfeuchtigkeit
    00:00 +15°C° 0 mm 1 m/S 626 mmHg 67%
    01:00 +15°C° 0 mm 1 m/S 625 mmHg 69%
    02:00 +14°C° 0 mm 1 m/S 625 mmHg 71%
    03:00 +14°C° 0 mm 2 m/S 625 mmHg 73%
    04:00 +15°C° 0 mm 2 m/S 625 mmHg 71%
    05:00 +15°C° 0 mm 2 m/S 625 mmHg 68%
    06:00 +16°C° 0 mm 2 m/S 626 mmHg 66%
    07:00 +18°C° 0 mm 2 m/S 627 mmHg 55%
    08:00 +20°C° 0 mm 2 m/S 628 mmHg 45%
    09:00 +24°C° 0 mm 2 m/S 629 mmHg 34%
    10:00 +24°C° 0 mm 2 m/S 629 mmHg 33%
    11:00 +25°C° 0 mm 2 m/S 629 mmHg 31%
    12:00 +26°C° 0 mm 3 m/S 630 mmHg 29%
    13:00 +26°C° 0 mm 2 m/S 629 mmHg 30%
    14:00 +26°C° 0 mm 2 m/S 629 mmHg 32%
    15:00 +27°C° 0 mm 2 m/S 629 mmHg 33%
    16:00 +25°C° 0 mm 2 m/S 628 mmHg 40%
    17:00 +24°C° 0 mm 2 m/S 628 mmHg 47%
    18:00 +22°C° 0 mm 1 m/S 627 mmHg 55%
    19:00 +20°C° 0 mm 1 m/S 627 mmHg 56%
    20:00 +19°C° 0 mm 1 m/S 626 mmHg 57%
    21:00 +16°C° 0 mm 1 m/S 626 mmHg 58%
    22:00 +16°C° 0 mm 1 m/S 626 mmHg 56%
    23:00 +15°C° 0 mm 1 m/S 626 mmHg 54%

    Morgen, 25 Juni, Dienstag

    Zeit Temperatur Niederschläge Wind Luftdruck Luftfeuchtigkeit
    00:00 +15°C° 0 mm 1 m/S 626 mmHg 53%
    01:00 +15°C° 0 mm 1 m/S 626 mmHg 53%
    02:00 +15°C° 0 mm 1 m/S 626 mmHg 53%
    03:00 +15°C° 0 mm 1 m/S 626 mmHg 52%
    04:00 +16°C° 0 mm 1 m/S 627 mmHg 53%
    05:00 +18°C° 0 mm 1 m/S 627 mmHg 54%
    06:00 +19°C° 0 mm 1 m/S 628 mmHg 54%
    07:00 +21°C° 0 mm 1 m/S 629 mmHg 48%
    08:00 +23°C° 0 mm 2 m/S 630 mmHg 42%
    09:00 +25°C° 0 mm 2 m/S 631 mmHg 36%
    10:00 +26°C° 0 mm 2 m/S 631 mmHg 33%
    11:00 +28°C° 0 mm 2 m/S 632 mmHg 30%
    12:00 +29°C° 0 mm 3 m/S 632 mmHg 28%
    13:00 +29°C° 0 mm 2 m/S 632 mmHg 28%
    14:00 +29°C° 0 mm 2 m/S 632 mmHg 28%
    15:00 +29°C° 0 mm 2 m/S 632 mmHg 29%
    16:00 +28°C° 0 mm 2 m/S 631 mmHg 36%
    17:00 +27°C° 0 mm 1 m/S 631 mmHg 43%
    18:00 +26°C° 0 mm 1 m/S 630 mmHg 51%
    19:00 +24°C° 0 mm 1 m/S 630 mmHg 52%
    20:00 +22°C° 0 mm 1 m/S 630 mmHg 53%
    21:00 +19°C° 0 mm 2 m/S 629 mmHg 54%
    22:00 +18°C° 0 mm 2 m/S 629 mmHg 51%
    23:00 +18°C° 0 mm 2 m/S 629 mmHg 47%

    übermorgen, 26 Juni, Mittwoch

    Zeit Temperatur Niederschläge Wind Luftdruck Luftfeuchtigkeit
    00:00 +17°C° 0 mm 2 m/S 629 mmHg 43%
    01:00 +17°C° 0 mm 2 m/S 629 mmHg 43%
    02:00 +17°C° 0 mm 2 m/S 629 mmHg 43%
    03:00 +16°C° 0 mm 2 m/S 629 mmHg 43%
    04:00 +17°C° 0 mm 2 m/S 629 mmHg 43%
    05:00 +18°C° 0 mm 2 m/S 629 mmHg 42%
    06:00 +19°C° 0 mm 2 m/S 630 mmHg 42%
    07:00 +23°C° 0 mm 2 m/S 631 mmHg 35%
    08:00 +26°C° 0 mm 2 m/S 632 mmHg 28%
    09:00 +29°C° 0 mm 2 m/S 633 mmHg 21%
    10:00 +30°C° 0 mm 3 m/S 633 mmHg 20%
    11:00 +31°C° 0 mm 3 m/S 634 mmHg 19%
    12:00 +33°C° 0 mm 4 m/S 634 mmHg 17%
    13:00 +33°C° 0 mm 4 m/S 634 mmHg 18%
    14:00 +31°C° 0 mm 3 m/S 633 mmHg 19%
    15:00 +31°C° 0 mm 3 m/S 633 mmHg 20%
    16:00 +30°C° 0 mm 3 m/S 632 mmHg 27%
    17:00 +28°C° 0 mm 2 m/S 632 mmHg 34%
    18:00 +27°C° 0 mm 2 m/S 631 mmHg 41%
    19:00 +24°C° 0 mm 2 m/S 631 mmHg 42%
    20:00 +21°C° 0 mm 2 m/S 630 mmHg 43%
    21:00 +19°C° 0 mm 2 m/S 630 mmHg 44%
    22:00 +19°C° 0 mm 2 m/S 630 mmHg 40%
    23:00 +19°C° 0 mm 2 m/S 630 mmHg 36%

    27 Juni, Donnerstag

    Zeit Temperatur Niederschläge Wind Luftdruck Luftfeuchtigkeit
    00:00 +19°C° 0 mm 2 m/S 630 mmHg 32%
    01:00 +19°C° 0 mm 2 m/S 629 mmHg 31%
    02:00 +19°C° 0 mm 2 m/S 629 mmHg 29%
    03:00 +19°C° 0 mm 2 m/S 629 mmHg 28%
    04:00 +19°C° 0 mm 2 m/S 630 mmHg 31%
    05:00 +21°C° 0 mm 1 m/S 630 mmHg 35%
    06:00 +22°C° 0 mm 1 m/S 630 mmHg 38%
    07:00 +24°C° 0 mm 1 m/S 631 mmHg 33%
    08:00 +27°C° 0 mm 1 m/S 632 mmHg 28%
    09:00 +30°C° 0 mm 1 m/S 633 mmHg 23%
    10:00 +31°C° 0 mm 2 m/S 634 mmHg 21%
    11:00 +32°C° 0 mm 2 m/S 634 mmHg 20%
    12:00 +34°C° 0 mm 2 m/S 634 mmHg 18%
    13:00 +34°C° 0 mm 2 m/S 634 mmHg 19%
    14:00 +32°C° 0 mm 1 m/S 633 mmHg 19%
    15:00 +32°C° 0 mm 1 m/S 633 mmHg 20%
    16:00 +31°C° 0 mm 1 m/S 632 mmHg 27%
    17:00 +29°C° 0 mm 1 m/S 632 mmHg 34%
    18:00 +28°C° 0 mm 1 m/S 631 mmHg 40%
    19:00 +26°C° 0 mm 1 m/S 630 mmHg 39%
    20:00 +24°C° 0 mm 1 m/S 630 mmHg 39%
    21:00 +22°C° 0 mm 1 m/S 629 mmHg 38%
    22:00 +20°C° 0 mm 2 m/S 629 mmHg 35%
    23:00 +20°C° 0 mm 2 m/S 629 mmHg 33%

    28 Juni, Freitag

    Zeit Temperatur Niederschläge Wind Luftdruck Luftfeuchtigkeit
    00:00 +20°C° 0 mm 2 m/S 629 mmHg 30%
    01:00 +19°C° 0 mm 2 m/S 628 mmHg 28%
    02:00 +19°C° 0 mm 2 m/S 628 mmHg 25%
    03:00 +19°C° 0 mm 2 m/S 628 mmHg 23%
    04:00 +20°C° 0 mm 2 m/S 628 mmHg 25%
    05:00 +20°C° 0 mm 2 m/S 628 mmHg 28%
    06:00 +21°C° 0 mm 2 m/S 629 mmHg 30%
    07:00 +25°C° 0 mm 1 m/S 630 mmHg 26%
    08:00 +28°C° 0 mm 1 m/S 631 mmHg 22%
    09:00 +31°C° 0 mm 1 m/S 632 mmHg 18%
    10:00 +31°C° 0 mm 1 m/S 632 mmHg 18%
    11:00 +32°C° 0 mm 1 m/S 632 mmHg 17%
    12:00 +34°C° 0 mm 2 m/S 632 mmHg 17%
    13:00 +32°C° 0 mm 2 m/S 632 mmHg 18%
    14:00 +32°C° 0 mm 2 m/S 631 mmHg 19%
    15:00 +32°C° 0 mm 2 m/S 631 mmHg 20%
    16:00 +30°C° 0 mm 2 m/S 630 mmHg 28%
    17:00 +29°C° 0 mm 1 m/S 630 mmHg 35%
    18:00 +27°C° 0 mm 1 m/S 629 mmHg 43%
    19:00 +25°C° 0 mm 1 m/S 628 mmHg 45%
    20:00 +23°C° 0 mm 1 m/S 628 mmHg 47%
    21:00 +21°C° 0 mm 1 m/S 627 mmHg 48%
    22:00 +20°C° 0 mm 1 m/S 627 mmHg 46%
    23:00 +20°C° 0 mm 1 m/S 627 mmHg 44%

    29 Juni, Samstag

    Zeit Temperatur Niederschläge Wind Luftdruck Luftfeuchtigkeit
    00:00 +20°C° 0 mm 1 m/S 627 mmHg 41%
    01:00 +20°C° 0 mm 1 m/S 627 mmHg 40%
    02:00 +20°C° 0 mm 1 m/S 627 mmHg 39%
    03:00 +19°C° 0 mm 1 m/S 626 mmHg 38%
    04:00 +20°C° 0 mm 1 m/S 627 mmHg 41%
    05:00 +21°C° 0 mm 1 m/S 627 mmHg 43%
    06:00 +22°C° 0 mm 1 m/S 628 mmHg 45%
    07:00 +24°C° 0 mm 1 m/S 629 mmHg 38%
    08:00 +27°C° 0 mm 1 m/S 630 mmHg 31%
    09:00 +30°C° 0 mm 1 m/S 631 mmHg 24%
    10:00 +30°C° 0 mm 1 m/S 631 mmHg 23%
    11:00 +31°C° 0 mm 2 m/S 631 mmHg 22%
    12:00 +32°C° 0 mm 2 m/S 631 mmHg 21%
    13:00 +31°C° 0 mm 2 m/S 631 mmHg 23%
    14:00 +31°C° 0 mm 2 m/S 631 mmHg 25%
    15:00 +30°C° 0 mm 2 m/S 630 mmHg 27%
    16:00 +29°C° 0 mm 2 m/S 630 mmHg 34%
    17:00 +27°C° 0 mm 1 m/S 629 mmHg 41%
    18:00 +26°C° 0 mm 1 m/S 629 mmHg 48%
    19:00 +24°C° 0 mm 1 m/S 629 mmHg 49%
    20:00 +22°C° 0 mm 1 m/S 628 mmHg 51%
    21:00 +18°C° 0 mm 0 m/S 628 mmHg 52%
    22:00 +20°C° 0 mm 1 m/S 628 mmHg 50%
    23:00 +20°C° 0 mm 1 m/S 628 mmHg 47%
    Mehr zeigen